FW6990 Weather Reports


time (UTC)temp
C
wind
direction
speed
KPH
gust
KPH
rain 1hr
cm
rain 24hr
cm
rain mn
cm
humidity
%
barometer
mb
20260504175444 22 248 4.8 9.7 0.00 0.00 0.00 29 1013.4
20260504174942 22 219 4.8 8.0 0.00 0.00 0.00 31 1013.4
20260504174439 21 250 1.6 6.4 0.00 0.00 0.00 32 1013.3
20260504173936 21 222 3.2 11.3 0.00 0.00 0.00 29 1013.5
20260504173432 21 233 4.8 4.8 0.00 0.00 0.00 32 1013.6
20260504172930 21 242 6.4 14.5 0.00 0.00 0.00 29 1013.7
20260504172426 21 260 8.0 8.0 0.00 0.00 0.00 30 1013.7
20260504171923 21 268 3.2 9.7 0.00 0.00 0.00 29 1013.8
20260504171420 21 231 3.2 9.7 0.00 0.00 0.00 31 1013.9
20260504170917 21 334 4.8 12.9 0.00 0.00 0.00 29 1014.0
20260504170413 21 333 1.6 9.7 0.00 0.00 0.00 30 1013.9
20260504160332 20 245 4.8 11.3 0.00 0.00 0.00 33 1014.8
20260504150756 18 169 3.2 9.7 0.00 0.00 0.00 40 1015.1
20260504150253 18 253 8.0 8.0 0.00 0.00 0.00 38 1015.4
20260504141223 17 253 3.2 4.8 0.00 0.00 0.00 48 1015.4
20260504140720 17 258 3.2 8.0 0.00 0.00 0.00 46 1015.6
20260504140215 17 263 4.8 4.8 0.00 0.00 0.00 48 1015.6
20260504130643 15 154 0.0 8.0 0.00 0.00 0.00 57 1016.1
20260504130139 15 268 3.2 9.7 0.00 0.00 0.00 56 1016.0
20260504120104 12 278 0.0 4.8 0.00 0.00 0.00 69 1016.3
20260504110531 9 152 3.2 3.2 0.00 0.00 0.00 78 1016.9
20260504100454 8 160 0.0 3.2 0.00 0.00 0.00 75 1016.8
20260504081847 7 122 1.6 3.2 0.00 0.00 0.00 71 1016.4
20260504081343 7 122 1.6 3.2 0.00 0.00 0.00 70 1016.6
20260504080839 7 113 0.0 1.6 0.00 0.00 0.00 69 1016.6
20260504080337 7 117 1.6 3.2 0.00 0.00 0.00 70 1016.5
20260504070304 7 125 1.6 3.2 0.00 0.00 0.00 70 1016.2
20260504060224 7 119 1.6 3.2 0.00 0.00 0.00 66 1016.3
20260504050652 8 152 3.2 3.2 0.00 0.00 0.00 62 1016.1
20260504050149 8 114 1.6 3.2 0.00 0.00 0.00 63 1016.2
20260504045646 8 123 1.6 3.2 0.00 0.00 0.00 62 1016.2
20260504045146 8 108 0.0 3.2 0.00 0.00 0.00 61 1016.2
20260504044644 8 119 3.2 3.2 0.00 0.00 0.00 62 1016.0
20260504044141 8 131 1.6 3.2 0.00 0.00 0.00 61 1016.0
20260504043638 8 111 1.6 3.2 0.00 0.00 0.00 60 1016.0
20260504043135 8 135 0.0 3.2 0.00 0.00 0.00 61 1016.2
20260504042632 8 135 0.0 3.2 0.00 0.00 0.00 58 1016.1
20260504042129 8 133 1.6 3.2 0.00 0.00 0.00 57 1016.0
20260504041625 8 139 1.6 3.2 0.00 0.00 0.00 56 1015.9
20260504041121 9 150 3.2 3.2 0.00 0.00 0.00 56 1015.7
20260504040618 9 133 3.2 3.2 0.00 0.00 0.00 56 1015.8
20260504040115 9 146 1.6 3.2 0.00 0.00 0.00 56 1015.5
20260504035612 9 122 0.0 3.2 0.00 0.00 0.00 55 1015.6
20260504035108 9 128 0.0 3.2 0.00 0.00 0.00 56 1015.6
20260504034606 9 145 0.0 3.2 0.00 0.00 0.00 56 1015.8
20260504034103 9 137 3.2 3.2 0.00 0.00 0.00 57 1015.8
20260504033601 9 152 1.6 3.2 0.00 0.00 0.00 56 1015.6
20260504033058 9 123 1.6 3.2 0.00 0.00 0.00 54 1015.7
20260504032555 9 132 0.0 3.2 0.00 0.00 0.00 55 1015.5
20260504032052 10 145 1.6 3.2 0.00 0.00 0.00 53 1015.5
20260504031548 10 136 0.0 1.6 0.00 0.00 0.00 52 1015.4
20260504031045 10 97 1.6 3.2 0.00 0.00 0.00 49 1015.4
20260504030542 10 163 1.6 3.2 0.00 0.00 0.00 50 1015.3
20260504030038 10 166 3.2 4.8 0.00 0.00 0.00 49 1015.5
20260504025536 10 138 1.6 3.2 0.00 0.00 0.00 51 1015.4
20260504025032 10 149 3.2 3.2 0.00 0.00 0.00 51 1015.3
20260504024529 10 167 3.2 3.2 0.00 0.00 0.00 51 1015.6
20260504024026 10 141 1.6 3.2 0.00 0.00 0.00 50 1015.4
20260504023523 10 127 3.2 3.2 0.00 0.00 0.00 50 1015.5
20260504023018 10 151 3.2 3.2 0.00 0.00 0.00 49 1015.6
20260504022514 10 152 0.0 3.2 0.00 0.00 0.00 50 1015.4
20260504022011 10 146 0.0 3.2 0.00 0.00 0.00 49 1015.7
20260504021509 10 163 3.2 3.2 0.00 0.00 0.00 48 1015.5
20260504021006 10 157 1.6 3.2 0.00 0.00 0.00 50 1015.3
20260504020502 10 150 1.6 3.2 0.00 0.00 0.00 48 1015.3
20260504015959 10 143 0.0 3.2 0.00 0.00 0.00 48 1015.5
20260504015455 11 128 0.0 3.2 0.00 0.00 0.00 48 1015.3
20260504014951 11 133 1.6 3.2 0.00 0.00 0.00 48 1015.5
20260504014447 11 123 1.6 3.2 0.00 0.00 0.00 48 1015.4
20260504013944 11 132 0.0 3.2 0.00 0.00 0.00 46 1015.3
20260504013443 11 134 1.6 3.2 0.00 0.00 0.00 47 1015.2
20260504012938 11 127 0.0 3.2 0.00 0.00 0.00 45 1015.3
20260504012437 11 107 1.6 3.2 0.00 0.00 0.00 45 1015.2
20260504011934 12 125 1.6 3.2 0.00 0.00 0.00 43 1015.0
20260504011430 12 133 1.6 3.2 0.00 0.00 0.00 40 1015.1
20260504010926 12 119 0.0 3.2 0.00 0.00 0.00 39 1014.9
20260504010422 13 137 0.0 3.2 0.00 0.00 0.00 38 1014.9
20260504005919 13 201 0.0 3.2 0.00 0.00 0.00 36 1014.9
20260504005415 13 133 0.0 3.2 0.00 0.00 0.00 37 1014.7
20260504004913 13 163 3.2 3.2 0.00 0.00 0.00 35 1014.8
20260504004411 13 196 0.0 3.2 0.00 0.00 0.00 35 1014.6
20260504003908 13 197 0.0 0.0 0.00 0.00 0.00 34 1014.4
20260504003404 13 137 0.0 3.2 0.00 0.00 0.00 35 1014.4
20260504002900 13 242 1.6 3.2 0.00 0.00 0.00 33 1014.4
20260504002358 13 235 0.0 4.8 0.00 0.00 0.00 34 1014.3
20260504001855 13 230 0.0 4.8 0.00 0.00 0.00 34 1014.5
20260504001352 14 191 0.0 1.6 0.00 0.00 0.00 34 1014.2
20260504000849 14 144 0.0 3.2 0.00 0.00 0.00 32 1014.5
20260504000346 14 166 0.0 4.8 0.00 0.00 0.00 32 1014.2
20260503235843 15 196 0.0 3.2 0.00 0.00 0.00 31 1014.3
20260503235341 15 187 0.0 1.6 0.00 0.00 0.00 31 1014.3
20260503234838 15 308 4.8 9.7 0.00 0.00 0.00 30 1014.1
20260503234336 15 241 3.2 4.8 0.00 0.00 0.00 30 1014.1
20260503233834 15 142 0.0 8.0 0.00 0.00 0.00 30 1014.0
20260503233329 15 268 3.2 9.7 0.00 0.00 0.00 29 1014.0
20260503232826 15 237 1.6 11.3 0.00 0.00 0.00 29 1013.9
20260503232323 15 252 3.2 4.8 0.00 0.00 0.00 29 1013.9
20260503231821 15 237 3.2 9.7 0.00 0.00 0.00 28 1013.8
20260503231318 15 267 6.4 8.0 0.00 0.00 0.00 29 1013.9
20260503230814 15 214 3.2 4.8 0.00 0.00 0.00 28 1013.8
20260503230311 15 227 1.6 6.4 0.00 0.00 0.00 29 1013.7
20260503225809 15 241 4.8 8.0 0.00 0.00 0.00 28 1013.7
20260503225305 15 260 6.4 8.0 0.00 0.00 0.00 27 1013.6
20260503224801 15 254 4.8 12.9 0.00 0.00 0.00 27 1013.5
20260503224258 15 200 4.8 8.0 0.00 0.00 0.00 27 1013.7
20260503223756 16 264 4.8 4.8 0.00 0.00 0.00 27 1013.6
20260503223253 16 193 1.6 4.8 0.00 0.00 0.00 29 1013.9
20260503222749 16 232 1.6 8.0 0.00 0.00 0.00 27 1013.7
20260503222247 16 252 4.8 4.8 0.00 0.00 0.00 28 1013.7
20260503221746 16 247 4.8 16.1 0.00 0.00 0.00 25 1013.5
20260503221244 17 301 1.6 8.0 0.00 0.00 0.00 24 1013.6
20260503220740 17 224 1.6 6.4 0.00 0.00 0.00 26 1013.5
20260503220237 17 178 0.0 14.5 0.00 0.00 0.00 26 1013.6
20260503215733 17 233 0.0 12.9 0.00 0.00 0.00 27 1013.7
20260503215230 17 278 11.3 14.5 0.00 0.00 0.00 25 1013.6
20260503214728 17 326 3.2 8.0 0.00 0.00 0.00 25 1013.7
20260503214225 17 232 3.2 16.1 0.00 0.00 0.00 25 1013.7
20260503213723 17 331 0.0 6.4 0.00 0.00 0.00 27 1013.6
20260503213220 17 269 8.0 12.9 0.00 0.00 0.00 27 1013.8
20260503212717 17 233 8.0 16.1 0.00 0.00 0.00 26 1013.4
20260503212214 17 258 4.8 8.0 0.00 0.00 0.00 27 1013.5
20260503211712 16 281 3.2 8.0 0.00 0.00 0.00 26 1013.6
20260503211208 16 297 1.6 8.0 0.00 0.00 0.00 28 1013.6
20260503210704 16 243 14.5 16.1 0.00 0.00 0.00 26 1013.6
20260503210201 17 19 1.6 16.1 0.00 0.00 0.00 26 1013.7
20260503205656 16 38 3.2 16.1 0.00 0.00 0.00 27 1013.7
20260503205152 17 22 8.0 11.3 0.00 0.00 0.00 26 1013.7
20260503204649 17 2 6.4 8.0 0.00 0.00 0.00 25 1013.7
20260503204147 16 306 3.2 9.7 0.00 0.00 0.00 27 1013.8
20260503203643 16 312 4.8 11.3 0.00 0.00 0.00 26 1013.8
20260503203141 16 251 4.8 14.5 0.00 0.00 0.00 26 1013.8
20260503202638 16 250 14.5 16.1 0.00 0.00 0.00 26 1013.9
20260503202137 16 199 3.2 9.7 0.00 0.00 0.00 27 1013.9
20260503201634 16 151 3.2 17.7 0.00 0.00 0.00 27 1013.9
20260503201131 16 147 3.2 8.0 0.00 0.00 0.00 28 1014.0
20260503200627 15 257 4.8 17.7 0.00 0.00 0.00 27 1014.0
20260503200124 15 297 4.8 6.4 0.00 0.00 0.00 28 1014.2
20260503195621 15 309 4.8 12.9 0.00 0.00 0.00 27 1013.9
20260503195118 15 251 8.0 9.7 0.00 0.00 0.00 27 1013.8
20260503194615 15 190 1.6 27.4 0.00 0.00 0.00 26 1014.0
20260503194110 15 231 3.2 8.0 0.00 0.00 0.00 26 1014.2
20260503193607 16 300 4.8 9.7 0.00 0.00 0.00 27 1014.2
20260503193102 15 163 1.6 4.8 0.00 0.00 0.00 29 1014.1
20260503192558 15 309 9.7 9.7 0.00 0.00 0.00 28 1014.1
20260503192054 15 326 8.0 8.0 0.00 0.00 0.00 28 1014.4
20260503191551 15 222 4.8 8.0 0.00 0.00 0.00 28 1014.3
20260503191048 15 278 12.9 16.1 0.00 0.00 0.00 26 1014.1
20260503190539 15 317 3.2 17.7 0.00 0.00 0.00 28 1014.4
20260503190037 15 234 3.2 19.3 0.00 0.00 0.00 28 1014.5
20260503185533 15 43 8.0 11.3 0.00 0.00 0.00 30 1014.4
20260503185033 14 162 6.4 12.9 0.00 0.00 0.00 30 1014.5
20260503184529 14 337 3.2 9.7 0.00 0.00 0.00 29 1014.5
20260503184026 14 14 3.2 14.5 0.00 0.00 0.00 31 1014.6
20260503183522 13 331 0.0 11.3 0.00 0.00 0.00 29 1014.9
20260503183019 14 238 11.3 12.9 0.00 0.00 0.00 29 1014.7
20260503182518 13 233 6.4 14.5 0.00 0.00 0.00 28 1014.6
20260503182015 13 256 8.0 16.1 0.00 0.00 0.00 29 1014.6
20260503181512 13 223 9.7 9.7 0.00 0.00 0.00 30 1014.7
20260503181008 13 225 1.6 9.7 0.00 0.00 0.00 32 1015.0
20260503180506 13 248 0.0 6.4 0.00 0.00 0.00 28 1014.7
20260503180003 13 225 14.5 17.7 0.00 0.00 0.00 29 1014.9